SCP
0 0 0 0 0 0 0 0 0 0 0 0 0 0 0 0 0 1 1 0 0 0 0 0 0 0 0 0 0 0 0 0 0 0 0 0 0 0 0 -0 -0 -0 0
0 0 0 0 0 0 0 0 0 0 0 0 0 0 0 0 1 1 1 0 0 -0 0 0 0 0 0 0 0 0 0 0 -0 0 0 0 0 0 0 0 -0 -0 -0
0 0 0 0 0 0 0 -0 0 0 0 0 0 0 0 0 0 1 1 0 0 -0 -0 0 0 0 0 -0 0 -0 0 0 0 0 0 0 0 0 -0 -0 -0 -0 -0
0 0 0 0 0 0 0 -0 0 0 0 0 0 0 0 0 0 1 1 0 0 0 -0 0 0 0 -0 0 0 0 0 -0 0 0 0 0 0 -0 -0 -0 -0 -0 -0
0 0 0 0 0 0 0 0 0 0 0 0 0 0 0 0 1 1 0 0 0 0 0 -0 0 0 0 0 0 -0 0 -0 0 0 0 0 0 -0 -0 -0 -0 -0 -0
-0 -0 0 0 0 -0 0 0 0 0 0 0 0 0 0 0 0 0 0 0 0 0 0 0 0 0 0 0 0 0 -0 0 0 0 0 0 0 0 0 -0 -0 -0 -0
-0 0 0 -0 0 -0 -0 0 0 0 0 0 0 0 0 0 0 0 0 0 0 0 0 0 0 0 0 0 0 0 0 -0 -0 0 0 0 0 0 -0 -0 -0 -0 -0
0 -0 0 -0 0 -0 -0 0 0 0 0 0 0 0 0 0 0 0 0 0 0 0 0 0 0 0 0 0 0 0 0 0 0 0 0 0 0 -0 -0 -0 -0 -0 -0
0 -0 -0 0 -0 -0 -0 0 0 0 0 0 0 0 0 0 0 0 0 0 0 0 0 0 0 0 0 0 0 0 -0 0 -0 -0 -0 -0 -0 -0 -0 -0 -0 0 0
-0 0 0 -0 -0 -0 -0 0 0 0 0 0 0 0 0 0 0 0 0 0 0 0 0 0 0 0 0 0 0 0 -0 0 0 -0 -0 -0 -0 -0 -0 -0 0 0 0
-0 0 -0 0 0 -0 0 0 0 0 0 0 0 0 0 0 0 0 0 0 0 0 0 -0 0 0 0 0 0 0 0 0 0 0 -0 0 -0 -0 -0 0 0 0 0
-0 -0 -0 0 0 -0 0 -0 0 0 0 0 0 0 0 0 0 0 0 0 0 0 0 0 0 0 0 0 0 0 0 -0 0 -0 0 0 -0 -0 -0 -0 0 0 0
-0 -0 0 -0 0 0 0 0 0 0 0 0 0 0 0 0 0 0 0 0 0 0 0 0 0 0 0 0 0 0 0 0 -0 0 0 0 0 0 0 0 0 0 0
0 0 0 0 0 0 0 0 0 0 0 0 0 0 0 0 0 0 0 0 0 0 0 -0 0 0 0 0 0 0 0 0 0 -0 0 0 0 0 0 0 0 0 0
0 -0 -0 0 0 0 0 0 -0 0 0 0 0 0 0 0 0 0 0 0 0 0 0 0 0 0 0 0 0 0 0 -0 -0 -0 -0 0 0 0 0 0 0 0 0
-0 0 0 0 0 0 0 0 0 0 0 0 0 0 0 0 0 0 0 0 0 0 0 0 0 0 0 0 0 0 -0 -0 -0 0 0 0 -0 -0 0 0 0 0 0
-0 0 0 0 0 0 0 0 0 0 0 0 0 0 0 0 0 0 0 0 0 0 0 0 0 0 0 0 0 -0 -0 -0 0 0 -0 -0 -0 0 0 0 0 0 0
-0 0 0 0 0 0 0 0 0 0 0 0 0 0 0 0 0 0 0 0 0 0 0 0 0 0 0 0 0 0 0 0 0 -0 -0 -0 0 0 0 0 0 0 0
-0 -0 0 0 0 0 0 0 0 0 0 0 0 0 0 0 0 0 0 0 0 0 0 0 0 0 0 0 0 0 0 0 0 0 -0 0 0 0 0 0 0 0 0
0 0 0 -0 -0 -0 0 0 0 0 0 0 0 0 0 0 0 0 0 0 0 0 0 -0 -0 -0 0 0 0 0 -0 0 0 0 0 0 0 0 0 0 0 0 0
0 0 0 -0 -0 -0 -0 0 0 0 0 0 0 0 0 0 0 0 0 0 0 0 0 0 0 0 0 0 0 0 0 0 -0 0 0 0 0 0 0 0 0 0 0
0 0 -0 0 -0 0 0 0 0 0 0 0 0 0 0 0 0 0 0 0 0 0 0 0 0 0 0 -0 -0 0 0 0 0 0 0 0 0 0 0 0 0 0 0
0 0 0 0 0 0 0 0 0 0 0 0 0 0 0 -0 0 0 0 0 0 0 0 0 0 0 0 -0 0 0 0 0 0 0 0 0 0 0 0 0 0 0 0
0 0 0 0 0 0 0 0 0 0 0 0 -0 -0 -0 -0 0 0 0 0 0 0 0 0 -0 0 0 0 0 0 0 0 0 0 0 0 0 0 0 0 0 0 0
0 0 0 0 0 0 0 -0 -0 -0 -0 -0 -0 -0 -0 -0 0 0 0 0 0 0 0 0 -0 0 0 0 0 0 0 0 0 0 0 0 0 0 0 0 0 0 0
0 0 0 0 0 0 -0 -0 -0 -0 -0 -0 -0 -0 -0 -0 -0 -0 0 0 0 -0 -0 -0 -0 -0 0 0 0 0 0 0 0 0 0 0 0 0 0 0 0 0 0
Wind_Speed_500mb
32 36 28 25 26 28 30 28 45 43 35 31 41 28 23 35 30 29 33 34 36 41 45 49 51 61 65 63 57 54 46 45 42 37 36 34 28 22 20 15 10 8 7
31 29 25 23 22 29 34 30 39 46 37 39 43 33 34 32 34 35 38 37 36 43 35 41 33 52 66 60 62 55 48 45 41 37 36 32 27 22 16 12 8 6 7
33 25 21 22 20 26 43 33 32 40 39 44 41 38 37 38 35 39 43 44 40 42 38 38 40 57 60 72 62 52 47 41 41 41 36 30 24 20 13 8 4 7 12
32 26 19 17 13 24 41 37 35 44 42 39 36 39 34 31 39 37 44 49 44 44 40 41 38 59 73 66 58 55 50 43 45 40 33 27 22 17 10 5 6 10 13
32 28 20 11 7 23 36 41 38 42 42 36 38 35 33 37 40 43 44 48 46 46 45 48 41 53 63 64 61 59 55 50 43 36 31 25 20 13 7 4 9 13 13
22 23 16 10 14 26 36 39 37 42 33 30 42 36 34 40 41 42 48 48 48 46 45 53 55 68 73 68 64 56 53 47 39 35 28 22 15 7 3 8 13 14 12
18 12 14 12 22 28 39 41 38 39 38 38 48 38 39 40 45 48 47 54 55 48 46 47 53 60 72 65 63 56 54 41 36 29 22 17 9 3 7 13 14 14 9
16 10 10 15 23 27 42 46 42 42 44 43 48 54 37 41 41 47 42 47 51 56 53 53 55 66 80 65 61 56 43 34 31 24 21 15 7 5 13 14 14 10 5
11 14 14 15 16 27 40 46 41 47 50 46 52 47 34 22 52 47 43 46 52 49 46 59 61 75 69 67 64 56 36 32 29 25 21 12 7 10 14 15 12 6 1
9 13 18 19 20 27 37 41 48 52 53 50 35 53 30 60 31 44 44 43 46 50 56 62 67 66 67 78 73 58 50 37 31 25 17 9 8 13 15 13 7 2 9
11 14 19 23 23 31 36 38 47 51 44 53 49 43 40 55 51 64 48 47 39 46 56 61 66 71 74 84 70 55 45 39 30 22 12 10 12 15 15 10 8 9 13
10 10 21 22 27 29 37 41 45 46 45 48 50 45 51 61 56 63 63 51 47 50 49 50 54 66 79 67 48 43 38 31 24 18 16 15 14 15 14 12 12 12 14
11 13 18 26 32 33 37 39 43 41 43 50 42 42 45 47 66 57 57 54 53 49 51 44 42 57 52 52 46 40 33 26 23 18 13 11 13 16 15 14 12 15 16
19 19 18 26 28 33 36 42 39 35 44 42 45 43 40 46 55 53 58 67 55 45 53 58 45 44 37 62 46 33 26 24 19 11 12 15 19 16 14 16 17 19 20
22 18 21 24 31 33 37 41 36 37 45 44 43 43 44 42 57 43 50 63 68 41 51 44 55 49 63 69 60 37 21 14 14 15 17 21 17 18 20 21 21 23 26
25 24 25 30 32 31 39 43 44 43 48 43 41 38 36 39 39 43 43 64 56 54 25 69 54 60 63 64 59 47 25 22 19 19 20 21 21 22 23 23 25 28 30
25 29 27 31 37 39 39 47 50 46 50 48 40 31 34 39 48 43 47 51 43 40 51 51 50 46 49 51 52 43 30 25 24 22 23 23 24 25 24 26 29 32 35
20 25 29 35 36 41 45 44 46 55 61 49 31 25 39 53 47 46 48 43 47 44 46 51 43 32 33 41 41 37 32 29 24 22 22 24 26 26 27 32 36 40 43
33 33 25 30 35 38 40 40 44 47 50 37 32 33 48 58 53 40 53 53 44 43 38 33 32 29 33 37 32 32 31 22 20 22 22 24 25 28 33 39 44 48 52
34 34 28 30 28 28 31 36 35 39 42 42 34 34 39 48 51 52 48 34 27 33 38 35 30 35 33 29 22 33 29 25 20 23 23 24 28 34 38 38 44 47 49
32 29 26 28 30 25 24 34 36 37 33 39 28 35 37 60 60 50 35 25 28 42 37 32 36 43 41 38 30 24 24 22 21 26 30 31 32 34 35 41 46 46 47
25 19 24 29 32 35 31 28 37 36 35 38 37 41 61 56 45 36 31 33 23 25 32 35 34 31 26 21 19 16 16 20 23 13 28 33 39 49 48 51 52 57 59
20 18 17 19 33 34 28 36 40 39 39 41 54 64 57 53 40 33 33 33 30 26 13 12 17 12 9 10 1 9 14 23 26 28 39 46 46 55 52 54 52 57 60
17 13 28 30 29 34 34 35 34 36 37 42 60 53 46 42 38 35 27 30 27 25 27 21 20 16 17 20 18 17 20 28 29 30 39 43 43 47 45 37 36 38 37
19 14 23 29 32 36 35 32 34 41 46 45 46 44 42 41 35 27 29 35 34 33 32 25 21 22 17 17 20 26 31 35 38 36 36 34 41 47 47 52 42 44 48
26 18 18 22 26 31 32 33 38 44 39 37 35 35 35 33 34 33 32 31 30 28 26 24 20 14 11 11 18 20 21 22 22 22 18 32 40 41 39 31 43 49 45
Wind_Direction_500mb
312 308 292 288 267 244 237 233 210 206 204 203 185 192 196 179 194 197 184 190 186 186 186 183 183 185 178 168 169 164 170 170 163 166 162 156 150 144 138 127 119 111 94
292 295 291 290 270 239 225 219 210 208 205 186 181 188 200 190 205 198 185 186 174 164 164 168 186 182 174 168 158 158 171 169 164 165 161 155 154 149 141 131 114 88 86
276 283 291 286 283 236 212 211 206 202 192 181 179 197 195 210 199 193 188 185 172 172 172 178 173 185 174 160 157 162 168 168 167 166 163 159 156 147 140 118 100 84 95
277 278 281 280 276 213 202 195 193 189 188 192 197 197 199 208 198 193 192 184 176 171 173 172 162 174 158 157 160 161 168 177 167 165 161 157 151 147 142 127 89 107 115
259 264 265 270 224 185 185 189 185 188 195 192 187 188 194 190 184 190 192 183 182 172 171 171 173 177 172 168 164 170 173 171 165 162 159 156 159 153 146 102 130 128 125
244 246 257 248 191 182 184 188 193 192 192 190 172 174 177 172 179 185 180 183 178 180 181 178 179 177 169 165 163 165 169 165 164 163 157 163 163 147 91 143 148 137 131
217 204 241 216 189 186 193 181 183 193 185 172 160 156 157 165 178 169 173 182 172 175 184 196 167 173 167 160 163 165 164 161 164 161 163 170 167 171 156 164 156 140 133
185 185 180 176 176 179 185 190 179 175 165 169 159 149 140 158 166 163 163 170 170 172 166 165 171 168 163 164 160 166 159 166 165 169 181 186 182 182 179 172 160 146 116
169 176 181 161 160 186 188 190 185 180 169 175 171 163 150 154 149 163 160 162 161 172 182 173 170 164 160 163 159 162 179 174 179 183 195 195 206 190 185 173 166 154 259
184 174 179 159 176 177 180 186 182 185 183 167 161 164 167 159 140 134 148 160 169 174 169 165 164 165 168 163 163 174 182 183 189 191 194 213 214 194 188 173 171 210 281
195 196 171 166 172 169 170 177 177 185 185 176 167 157 162 152 142 137 145 160 166 177 174 173 179 176 172 169 176 175 179 180 183 187 197 231 218 200 185 181 221 260 272
143 171 176 167 159 165 165 170 178 182 186 183 179 176 165 168 159 157 154 165 167 177 175 177 175 176 171 179 164 168 174 176 179 190 214 222 207 199 190 211 242 272 283
130 141 158 169 164 169 171 171 175 181 183 180 181 176 183 166 168 170 162 159 156 168 173 171 168 177 183 181 162 166 170 174 185 206 223 213 217 211 208 235 263 270 276
116 119 127 152 168 173 171 175 178 177 172 171 172 178 180 184 188 185 177 161 156 162 176 179 196 181 190 180 171 172 172 187 200 219 221 222 218 218 242 255 267 268 277
119 113 125 132 140 163 170 171 168 165 164 172 173 171 182 175 175 185 176 174 161 142 157 169 166 180 172 174 187 197 200 206 220 225 231 231 226 242 254 259 264 271 275
112 125 122 131 136 151 151 154 162 161 165 169 157 153 161 168 172 178 186 179 171 165 137 170 167 164 177 184 192 199 214 227 232 233 238 232 239 251 258 268 275 279 283
112 123 121 131 136 145 153 155 162 161 150 147 152 159 167 166 158 156 169 179 175 174 163 154 168 177 182 187 197 202 220 236 235 231 229 240 254 265 273 280 283 284 287
115 117 125 134 147 146 149 155 162 162 156 151 126 140 157 153 152 153 148 147 167 163 147 150 158 169 183 184 199 219 224 222 220 221 238 254 267 274 280 284 290 293 290
105 109 117 133 147 155 157 158 160 166 172 163 129 124 146 152 146 143 149 145 141 154 162 159 160 164 168 185 198 207 212 215 223 232 249 251 258 276 289 295 295 294 292
89 95 94 113 134 144 154 159 162 158 154 156 139 128 140 154 147 142 142 139 143 147 157 169 177 181 185 185 198 203 209 222 238 246 255 272 285 293 298 300 303 299 296
93 97 106 118 133 130 154 165 165 156 160 168 151 145 146 144 139 134 129 141 159 176 167 176 182 183 191 193 199 209 221 244 259 274 284 288 298 299 298 299 302 311 312
131 120 95 94 126 126 120 118 163 173 175 178 169 157 162 157 152 150 143 150 156 164 167 170 160 170 179 182 194 213 240 255 268 271 298 302 298 298 303 306 319 317 318
133 118 127 117 115 114 129 127 122 130 127 142 145 144 153 169 165 159 152 148 167 174 152 119 103 115 110 79 181 241 269 274 285 295 277 288 300 304 315 310 308 303 300
155 122 135 137 123 112 118 127 132 127 130 133 154 158 152 157 155 154 154 161 162 175 180 195 213 229 245 240 247 263 274 276 271 274 283 294 298 299 302 310 322 319 310
165 144 147 147 144 135 132 129 133 134 132 135 146 156 161 158 153 159 170 175 180 185 192 196 192 201 227 249 249 252 259 270 283 289 288 292 289 291 292 306 312 311 304
183 166 142 158 155 149 143 142 144 146 142 143 150 159 163 162 165 169 172 180 181 186 197 200 204 216 243 262 265 266 275 285 287 301 305 317 325 330 322 304 317 326 327
Wind_Speed_850mb
32 36 28 25 26 28 30 28 45 43 35 31 41 28 23 35 30 29 33 34 36 41 45 49 51 61 65 63 57 54 46 45 42 37 36 34 28 22 20 15 10 8 7
31 29 25 23 22 29 34 30 39 46 37 39 43 33 34 32 34 35 38 37 36 43 35 41 33 52 66 60 62 55 48 45 41 37 36 32 27 22 16 12 8 6 7
33 25 21 22 20 26 43 33 32 40 39 44 41 38 37 38 35 39 43 44 40 42 38 38 40 57 60 72 62 52 47 41 41 41 36 30 24 20 13 8 4 7 12
32 26 19 17 13 24 41 37 35 44 42 39 36 39 34 31 39 37 44 49 44 44 40 41 38 59 73 66 58 55 50 43 45 40 33 27 22 17 10 5 6 10 13
32 28 20 11 7 23 36 41 38 42 42 36 38 35 33 37 40 43 44 48 46 46 45 48 41 53 63 64 61 59 55 50 43 36 31 25 20 13 7 4 9 13 13
22 23 16 10 14 26 36 39 37 42 33 30 42 36 34 40 41 42 48 48 48 46 45 53 55 68 73 68 64 56 53 47 39 35 28 22 15 7 3 8 13 14 12
18 12 14 12 22 28 39 41 38 39 38 38 48 38 39 40 45 48 47 54 55 48 46 47 53 60 72 65 63 56 54 41 36 29 22 17 9 3 7 13 14 14 9
16 10 10 15 23 27 42 46 42 42 44 43 48 54 37 41 41 47 42 47 51 56 53 53 55 66 80 65 61 56 43 34 31 24 21 15 7 5 13 14 14 10 5
11 14 14 15 16 27 40 46 41 47 50 46 52 47 34 22 52 47 43 46 52 49 46 59 61 75 69 67 64 56 36 32 29 25 21 12 7 10 14 15 12 6 1
9 13 18 19 20 27 37 41 48 52 53 50 35 53 30 60 31 44 44 43 46 50 56 62 67 66 67 78 73 58 50 37 31 25 17 9 8 13 15 13 7 2 9
11 14 19 23 23 31 36 38 47 51 44 53 49 43 40 55 51 64 48 47 39 46 56 61 66 71 74 84 70 55 45 39 30 22 12 10 12 15 15 10 8 9 13
10 10 21 22 27 29 37 41 45 46 45 48 50 45 51 61 56 63 63 51 47 50 49 50 54 66 79 67 48 43 38 31 24 18 16 15 14 15 14 12 12 12 14
11 13 18 26 32 33 37 39 43 41 43 50 42 42 45 47 66 57 57 54 53 49 51 44 42 57 52 52 46 40 33 26 23 18 13 11 13 16 15 14 12 15 16
19 19 18 26 28 33 36 42 39 35 44 42 45 43 40 46 55 53 58 67 55 45 53 58 45 44 37 62 46 33 26 24 19 11 12 15 19 16 14 16 17 19 20
22 18 21 24 31 33 37 41 36 37 45 44 43 43 44 42 57 43 50 63 68 41 51 44 55 49 63 69 60 37 21 14 14 15 17 21 17 18 20 21 21 23 26
25 24 25 30 32 31 39 43 44 43 48 43 41 38 36 39 39 43 43 64 56 54 25 69 54 60 63 64 59 47 25 22 19 19 20 21 21 22 23 23 25 28 30
25 29 27 31 37 39 39 47 50 46 50 48 40 31 34 39 48 43 47 51 43 40 51 51 50 46 49 51 52 43 30 25 24 22 23 23 24 25 24 26 29 32 35
20 25 29 35 36 41 45 44 46 55 61 49 31 25 39 53 47 46 48 43 47 44 46 51 43 32 33 41 41 37 32 29 24 22 22 24 26 26 27 32 36 40 43
33 33 25 30 35 38 40 40 44 47 50 37 32 33 48 58 53 40 53 53 44 43 38 33 32 29 33 37 32 32 31 22 20 22 22 24 25 28 33 39 44 48 52
34 34 28 30 28 28 31 36 35 39 42 42 34 34 39 48 51 52 48 34 27 33 38 35 30 35 33 29 22 33 29 25 20 23 23 24 28 34 38 38 44 47 49
32 29 26 28 30 25 24 34 36 37 33 39 28 35 37 60 60 50 35 25 28 42 37 32 36 43 41 38 30 24 24 22 21 26 30 31 32 34 35 41 46 46 47
25 19 24 29 32 35 31 28 37 36 35 38 37 41 61 56 45 36 31 33 23 25 32 35 34 31 26 21 19 16 16 20 23 13 28 33 39 49 48 51 52 57 59
20 18 17 19 33 34 28 36 40 39 39 41 54 64 57 53 40 33 33 33 30 26 13 12 17 12 9 10 1 9 14 23 26 28 39 46 46 55 52 54 52 57 60
17 13 28 30 29 34 34 35 34 36 37 42 60 53 46 42 38 35 27 30 27 25 27 21 20 16 17 20 18 17 20 28 29 30 39 43 43 47 45 37 36 38 37
19 14 23 29 32 36 35 32 34 41 46 45 46 44 42 41 35 27 29 35 34 33 32 25 21 22 17 17 20 26 31 35 38 36 36 34 41 47 47 52 42 44 48
26 18 18 22 26 31 32 33 38 44 39 37 35 35 35 33 34 33 32 31 30 28 26 24 20 14 11 11 18 20 21 22 22 22 18 32 40 41 39 31 43 49 45
Wind_Direction_850mb
312 308 292 288 267 244 237 233 210 206 204 203 185 192 196 179 194 197 184 190 186 186 186 183 183 185 178 168 169 164 170 170 163 166 162 156 150 144 138 127 119 111 94
292 295 291 290 270 239 225 219 210 208 205 186 181 188 200 190 205 198 185 186 174 164 164 168 186 182 174 168 158 158 171 169 164 165 161 155 154 149 141 131 114 88 86
276 283 291 286 283 236 212 211 206 202 192 181 179 197 195 210 199 193 188 185 172 172 172 178 173 185 174 160 157 162 168 168 167 166 163 159 156 147 140 118 100 84 95
277 278 281 280 276 213 202 195 193 189 188 192 197 197 199 208 198 193 192 184 176 171 173 172 162 174 158 157 160 161 168 177 167 165 161 157 151 147 142 127 89 107 115
259 264 265 270 224 185 185 189 185 188 195 192 187 188 194 190 184 190 192 183 182 172 171 171 173 177 172 168 164 170 173 171 165 162 159 156 159 153 146 102 130 128 125
244 246 257 248 191 182 184 188 193 192 192 190 172 174 177 172 179 185 180 183 178 180 181 178 179 177 169 165 163 165 169 165 164 163 157 163 163 147 91 143 148 137 131
217 204 241 216 189 186 193 181 183 193 185 172 160 156 157 165 178 169 173 182 172 175 184 196 167 173 167 160 163 165 164 161 164 161 163 170 167 171 156 164 156 140 133
185 185 180 176 176 179 185 190 179 175 165 169 159 149 140 158 166 163 163 170 170 172 166 165 171 168 163 164 160 166 159 166 165 169 181 186 182 182 179 172 160 146 116
169 176 181 161 160 186 188 190 185 180 169 175 171 163 150 154 149 163 160 162 161 172 182 173 170 164 160 163 159 162 179 174 179 183 195 195 206 190 185 173 166 154 259
184 174 179 159 176 177 180 186 182 185 183 167 161 164 167 159 140 134 148 160 169 174 169 165 164 165 168 163 163 174 182 183 189 191 194 213 214 194 188 173 171 210 281
195 196 171 166 172 169 170 177 177 185 185 176 167 157 162 152 142 137 145 160 166 177 174 173 179 176 172 169 176 175 179 180 183 187 197 231 218 200 185 181 221 260 272
143 171 176 167 159 165 165 170 178 182 186 183 179 176 165 168 159 157 154 165 167 177 175 177 175 176 171 179 164 168 174 176 179 190 214 222 207 199 190 211 242 272 283
130 141 158 169 164 169 171 171 175 181 183 180 181 176 183 166 168 170 162 159 156 168 173 171 168 177 183 181 162 166 170 174 185 206 223 213 217 211 208 235 263 270 276
116 119 127 152 168 173 171 175 178 177 172 171 172 178 180 184 188 185 177 161 156 162 176 179 196 181 190 180 171 172 172 187 200 219 221 222 218 218 242 255 267 268 277
119 113 125 132 140 163 170 171 168 165 164 172 173 171 182 175 175 185 176 174 161 142 157 169 166 180 172 174 187 197 200 206 220 225 231 231 226 242 254 259 264 271 275
112 125 122 131 136 151 151 154 162 161 165 169 157 153 161 168 172 178 186 179 171 165 137 170 167 164 177 184 192 199 214 227 232 233 238 232 239 251 258 268 275 279 283
112 123 121 131 136 145 153 155 162 161 150 147 152 159 167 166 158 156 169 179 175 174 163 154 168 177 182 187 197 202 220 236 235 231 229 240 254 265 273 280 283 284 287
115 117 125 134 147 146 149 155 162 162 156 151 126 140 157 153 152 153 148 147 167 163 147 150 158 169 183 184 199 219 224 222 220 221 238 254 267 274 280 284 290 293 290
105 109 117 133 147 155 157 158 160 166 172 163 129 124 146 152 146 143 149 145 141 154 162 159 160 164 168 185 198 207 212 215 223 232 249 251 258 276 289 295 295 294 292
89 95 94 113 134 144 154 159 162 158 154 156 139 128 140 154 147 142 142 139 143 147 157 169 177 181 185 185 198 203 209 222 238 246 255 272 285 293 298 300 303 299 296
93 97 106 118 133 130 154 165 165 156 160 168 151 145 146 144 139 134 129 141 159 176 167 176 182 183 191 193 199 209 221 244 259 274 284 288 298 299 298 299 302 311 312
131 120 95 94 126 126 120 118 163 173 175 178 169 157 162 157 152 150 143 150 156 164 167 170 160 170 179 182 194 213 240 255 268 271 298 302 298 298 303 306 319 317 318
133 118 127 117 115 114 129 127 122 130 127 142 145 144 153 169 165 159 152 148 167 174 152 119 103 115 110 79 181 241 269 274 285 295 277 288 300 304 315 310 308 303 300
155 122 135 137 123 112 118 127 132 127 130 133 154 158 152 157 155 154 154 161 162 175 180 195 213 229 245 240 247 263 274 276 271 274 283 294 298 299 302 310 322 319 310
165 144 147 147 144 135 132 129 133 134 132 135 146 156 161 158 153 159 170 175 180 185 192 196 192 201 227 249 249 252 259 270 283 289 288 292 289 291 292 306 312 311 304
183 166 142 158 155 149 143 142 144 146 142 143 150 159 163 162 165 169 172 180 181 186 197 200 204 216 243 262 265 266 275 285 287 301 305 317 325 330 322 304 317 326 327